CZ-4C R/B, 41039

Orbit data source: Space-Track

CZ-4C R/B, 41039 is space debris in SSO originally from a launch on Thu, 26 Nov 2015 UTC launched from the Taiyaun Space Center, China (TSC). Debris objects in space refer to the collection of defunct objects orbiting the Earth. Examples of debris include non-operational satellites, rocket bodies, and fragments generated from explosions, collisions, or faulty payload assembly.

Loading next visibility...
Identifier
41039, 2015-069B
Orbit
SSO
Country
Flag of CNCN / PRC
Related business
Manufacturer
SAST
Mission
Spacecraft
Bus & Motor
CZ-4 STAGE 3, Unknown motor
Mass
~1,000 kg wet, ~1,000 kg dry
Launch date (UTC)
2015-11-26 (10 years ago)
Launch vehicle
Unknown
Launch site
Taiyaun Space Center, China (TSC)
Object type
Payload
Rocket body
Debris
Shape & HBR
Cyl, 2.5 m
Radar Cross Section
14.536 m², Large (>1 m²)

Expand to show TLE details & history
Last TLE update: 7 hours ago

TLE from 7 hours ago
0 CZ-4C R/B
1 41039U 15069B   26124.43103642  .00006476  00000-0  20343-3 0  9994
2 41039  97.4780 193.9782 0055338 321.0453  38.6807 15.31851122575418
Epoch: 2026-05-04T10:20Z
TLE epoch observation values (Epoch: 2026-05-04T10:20:41.546Z)
Latitude
-0.00002°
Longitude
176.48476°
Altitude
443.885 km
Speed
7.662 km/s
True Right ascension
12h 55m 54s
True Declination
0° 00' 00"
Sunlit
Object was in full shadow at epoch
Visualization orbit readout
Latitude
Unknown
Longitude
Unknown
Altitude
Unknown
Speed
Unknown
Apparent Right ascension
Unknown
Apparent Declination
Unknown
Sunlit
N/A
Visualization observer readout
Local Sidereal Time
00:41:42
Azimuth
Unknown
Elevation
Unknown
Doppler factor
Unknown
Orbital elements
Apogee altitude
505.124 km
Perigee altitude
429.362 km
Semi-major axis
6,845.38 km
Eccentricity
0.00553
Inclination
97.478°
RAAN
193.9782°
Arg. of periapsis
321.0453°
True anomaly
39.07916°
Mean anomaly
38.6807°
Eccentric anomaly
38.87972°
Mean motion
3.83219 °/min
Orbital period
93.94 mins
BSTAR
0.00020343
Loading maneuver chart data...
Computing Atmospheric mass density...
Loading historical data...
Loading historical data...
Loading historical data...
Loading historical data...
Loading historical data...
Loading historical data...
Loading historical data...
Other satellites on launch #69 in the year 2015 (2015-11-26 UTC)

Documentation

Showing up to 5 results
|